Location: Unspecified
(52.4292°N, 19.3359°E)
Time: 11:38:20
(UTC+02:00)

deb Explorer IX - Pass Details

Date: 25 May 2024
Orbit: 510 x 885 km, 38.7° (Epoch: 16 June)

Event Time Altitude Azimuth Distance (km) Brightness Sun altitude
Rises 23:31:46 0° 245° (WSW) 3,015 ? -14.9°
Enters shadow 23:35:28 10° 218° (SW) 1,979 ? -15.1°
Maximum altitude 23:37:35 14° 190° (S) 1,728 - -15.2°
Drops below altitude 10° 23:39:45 10° 160° (SSE) 1,899 - -15.3°
Sets 23:42:57 0° 133° (SE) 2,725 - -15.4°
